Location: *
(32.3758°S, 63.1185°E)
Time: 18:44:42
(UTC+00:00)

USA 81 - Pass Details

Date: 02 June 2023
Orbit: 782 x 789 km, 85.0° (Epoch: 18 September)

Event Time Altitude Azimuth Distance (km) Brightness Sun altitude
Rises 14:47:28 0° 358° (N) 3,269 7.4 -24.3°
Reaches altitude 10° 14:49:48 10° 358° (N) 2,349 6.7 -24.8°
Maximum altitude 14:55:05 90° 80° (E) 802 3.9 -25.9°
Enters shadow 14:56:33 50° 177° (S) 1,010 4.4 -26.2°
